Regional Weather Roundup
Issued by NWS

Home | Current Version | Previous Version | Graphics & Text | Print | Product List | Glossary On
Versions: 1 2 3 4 5 6 7 8 9 10 11 12 13 14 15 16 17 18 19 20 21 22 23 24 25 26 27 28 29 30 31 32 33 34 35 36 37 38 39 40 41 42 43 44 45 46 47 48 49 50
000
ASUS43 KOAX 241710
RWRNE

WEATHER ROUNDUP FOR NEBRASKA
NATIONAL WEATHER SERVICE OMAHA NE
1200 PM CDT SUN SEP 24 2017

NOTES: SATELLITE DATA IS BEING USED TO AUGMENT CLOUD COVER ABOVE
       12000 FEET.
       "FAIR" INDICATES FEW OR NO CLOUDS BELOW 12,000 FEET WITH NO
       SIGNIFICANT WEATHER AND/OR OBSTRUCTIONS TO VISIBILITY.


NEZ001>004-019>022-054>056-241800-
NEBRASKA PANHANDLE

CITY           SKY/WX    TMP DP  RH WIND       PRES   REMARKS
SCOTTSBLUFF    CLOUDY    49  43  80 N5        30.04S
ALLIANCE       CLOUDY    49  43  80 N13       30.02R
CHADRON        CLOUDY    50  43  77 NE12      30.05R
GORDON         CLOUDY    46  45  94 N10       30.03R
KIMBALL        CLOUDY    48  43  82 NE12      30.02S
SIDNEY         CLOUDY    49  45  86 NE12      30.02S
$$

NEZ057>060-069>072-079>082-241800-
SOUTHWEST NEBRASKA

CITY           SKY/WX    TMP DP  RH WIND       PRES   REMARKS
NORTH PLATTE   CLOUDY    54  50  86 N12       29.99R
IMPERIAL       CLOUDY    52  48  86 N14       30.00R
LEXINGTON      RAIN      55  54  94 NW8       29.96R
MCCOOK         CLOUDY    54  53  97 N12       29.97R
OGALLALA       CLOUDY    54  48  81 N12       30.00S
$$

NEZ005>010-023>029-035>040-094-241800-
NORTH CENTRAL NEBRASKA

CITY           SKY/WX    TMP DP  RH WIND       PRES   REMARKS
VALENTINE      CLOUDY    52  48  86 N10       30.01R
AINSWORTH      CLOUDY    51  51 100 NW10      29.99R
BROKEN BOW     LGT RAIN  54  52  93 N13       29.96R
O`NEILL        LGT RAIN  54  54 100 W9        29.98R
ORD            LGT RAIN  54  51  90 N9        29.94S
THEDFORD       CLOUDY    52  50  93 N9        30.00R
$$

NEZ041-046>049-061>064-073>077-083>087-241800-
SOUTH CENTRAL NEBRASKA

CITY           SKY/WX    TMP DP  RH WIND       PRES   REMARKS
GRAND ISLAND   MOSUNNY   76  64  66 W10       29.92S
AURORA         CLOUDY    78  63  59 W9G16     29.92R
HASTINGS       PTSUNNY   76  60  57 W9        29.93S
HEBRON         CLOUDY    84  64  50 SW17G23   29.92S
HOLDREGE       LGT RAIN  65  62  92 CALM      29.94R
KEARNEY        LGT RAIN  67  65  93 W8        29.93F
YORK           CLOUDY    82  64  54 S18G25    29.91S
$$

NEZ011>018-030>034-042>045-241800-
NORTHEAST NEBRASKA

CITY           SKY/WX    TMP DP  RH WIND       PRES   REMARKS
NORFOLK        CLOUDY    81  65  58 SW21G28   29.87S
ALBION         CLOUDY    71  65  79 W12       29.93R
BLAIR          MOSUNNY   85  65  52 S20G26    29.93S
COLUMBUS       PTSUNNY   82  65  56 S14G22    29.90S
FREMONT        MOSUNNY   84  64  49 S16G23    29.91S
TEKAMAH        MOSUNNY   86  65  49 S14G21    29.90S
WAYNE          PTSUNNY   80  68  67 S14G24    29.89R
$$

NEZ050>053-065>068-078-088>093-241800-
SOUTHEAST NEBRASKA

CITY           SKY/WX    TMP DP  RH WIND       PRES   REMARKS
LINCOLN        MOSUNNY   86  64  47 SW16G24   29.91S
OMAHA EPPLEY   PTSUNNY   83  66  56 S10       29.92S
BEATRICE       MOSUNNY   86  65  49 S14G28    29.92F
FALLS CITY     PTSUNNY   85  67  54 S9G21     29.95R
NEBRASKA CITY  MOSUNNY   85  66  53 SW17G23   29.95S
PLATTSMOUTH    PTSUNNY   85  67  55 S15       29.94S
$$

NEZ044-045-051>053-067-241800-
OMAHA AREA

CITY           SKY/WX    TMP DP  RH WIND       PRES   REMARKS
OMAHA EPPLEY   PTSUNNY   83  66  56 S10       29.92S
BLAIR          MOSUNNY   85  65  52 S20G26    29.93S
FREMONT        MOSUNNY   84  64  49 S16G23    29.91S
MILLARD        MOSUNNY   87  67  51 S17G24    29.92F HX  90
OFFUTT AFB     MOSUNNY   85  66  51 S14       29.92S
PLATTSMOUTH    PTSUNNY   85  67  55 S15       29.94S
WAHOO          FAIR      87  62  44 S16G25    29.91S
$$




USA.gov is the U.S. government's official web portal to all federal, state and local government web resources and services.